Location: Dodgeville
(42.9600°N, 90.1300°W)
Time: 05:50:20
(UTC-06:00)

Uosat F - Visible Passes

Search period start: 08 December 2016 00:00
Search period end: 18 December 2016 00:00
Orbit: 750 x 761 km, 98.8° (Epoch: 07 December)

Date Brightness Start Highest point End Pass type
(mag) Time Alt. Az. Time Alt. Az. Time Alt. Az.
08 Dec 13.9 05:23:55 10° NE 05:27:29 19° E 05:31:01 10° SE visible
08 Dec 12.8 18:16:10 10° SSW 18:20:41 33° W 18:25:14 10° NNW visible
09 Dec 11.5 06:22:07 10° NNE 06:27:08 69° ESE 06:32:06 10° S visible
09 Dec 11.2 17:36:04 10° S 17:41:06 79° WSW 17:46:10 10° NNW visible
10 Dec 13.2 05:43:09 10° NE 05:47:30 29° E 05:51:49 10° SSE visible
10 Dec 11.4 16:56:58 10° SE 17:01:44 45° ENE 17:06:32 10° N visible
10 Dec 13.6 18:36:49 10° SW 18:40:42 22° W 18:44:35 10° NW visible
11 Dec 14.3 05:05:39 10° ENE 05:07:39 12° E 05:09:38 10° ESE visible
11 Dec 11.0 06:41:57 10° NNE 06:46:59 79° WNW 06:51:58 10° SSW visible
11 Dec 12.0 17:56:07 10° S 18:01:00 51° W 18:05:55 10° NNW visible
12 Dec 12.3 06:02:41 10° NNE 06:07:28 44° E 06:12:13 10° S visible
12 Dec 11.0 17:16:32 10° SSE 17:21:32 69° ENE 17:26:32 10° N visible
12 Dec 14.1 18:58:03 10° WSW 19:00:46 14° W 19:03:29 10° WNW visible
13 Dec 13.9 05:24:12 10° NE 05:27:44 19° E 05:31:15 10° SE visible
13 Dec 12.8 18:16:25 10° SSW 18:20:57 34° W 18:25:30 10° NNW visible
14 Dec 11.5 06:22:23 10° NNE 06:27:23 68° ESE 06:32:22 10° S visible
14 Dec 11.2 17:36:21 10° S 17:41:22 80° WSW 17:46:25 10° NNW visible
15 Dec 13.2 05:43:25 10° NE 05:47:46 29° E 05:52:03 10° SSE visible
15 Dec 11.4 16:57:15 10° SE 17:02:01 45° ENE 17:06:47 10° N visible
15 Dec 13.5 18:37:04 10° SW 18:40:58 22° W 18:44:52 10° NW visible
16 Dec 14.3 05:05:58 10° ENE 05:07:54 12° E 05:09:49 10° ESE visible
16 Dec 11.0 06:42:13 10° NNE 06:47:14 80° WNW 06:52:14 10° SSW visible
16 Dec 12.0 17:56:23 10° S 18:01:15 52° W 18:06:10 10° NNW visible
17 Dec 12.4 06:02:56 10° NNE 06:07:44 44° E 06:12:29 10° S visible
17 Dec 11.0 17:16:49 10° SSE 17:21:47 68° ENE 17:26:47 10° N visible
17 Dec 14.1 18:58:17 10° SW 19:01:01 15° W 19:03:46 10° WNW visible
